When you browse on this site, cookies collect data to enhance your experience and personalize the content and advertising you see.
Visit our Privacy Policy to learn more. By continuing to use the site, you agree to this use of cookies and data.
  • în România
  • Lista ţărilor
  • Pe 7 zile
  • Temperatura apei
  • Hartă satelitară
  • Meteo pe hartă
  • Widget-uri
  • user-avatar
    Intrare

    Meteo pe oră la Halol

    Astăzi, 16 Februarie, Sâmbătă

    Timp Temperatura Precipitaţii Vânt Presiune Umiditate
    00:00 +21°C° 0 mm 2 m/s 752 mmHg 34%
    01:00 +20°C° 0 mm 2 m/s 752 mmHg 34%
    02:00 +20°C° 0 mm 2 m/s 752 mmHg 34%
    03:00 +20°C° 0 mm 2 m/s 752 mmHg 35%
    04:00 +19°C° 0 mm 2 m/s 752 mmHg 35%
    05:00 +19°C° 0 mm 2 m/s 752 mmHg 35%
    06:00 +19°C° 0 mm 3 m/s 753 mmHg 35%
    07:00 +20°C° 0 mm 3 m/s 753 mmHg 36%
    08:00 +21°C° 0 mm 4 m/s 754 mmHg 36%
    09:00 +23°C° 0 mm 4 m/s 754 mmHg 32%
    10:00 +27°C° 0 mm 4 m/s 754 mmHg 28%
    11:00 +29°C° 0 mm 5 m/s 754 mmHg 24%
    12:00 +30°C° 0 mm 4 m/s 753 mmHg 21%
    13:00 +32°C° 0 mm 4 m/s 752 mmHg 19%
    14:00 +33°C° 0 mm 3 m/s 752 mmHg 16%
    15:00 +33°C° 0 mm 3 m/s 751 mmHg 16%
    16:00 +31°C° 0 mm 3 m/s 751 mmHg 16%
    17:00 +31°C° 0 mm 3 m/s 751 mmHg 16%
    18:00 +29°C° 0 mm 3 m/s 751 mmHg 17%
    19:00 +27°C° 0 mm 3 m/s 752 mmHg 18%
    20:00 +25°C° 0 mm 3 m/s 752 mmHg 19%
    21:00 +25°C° 0 mm 3 m/s 752 mmHg 19%
    22:00 +24°C° 0 mm 2 m/s 753 mmHg 19%
    23:00 +23°C° 0 mm 2 m/s 753 mmHg 19%

    Mâine, 17 Februarie, Duminică

    Timp Temperatura Precipitaţii Vânt Presiune Umiditate
    00:00 +23°C° 0 mm 2 m/s 752 mmHg 20%
    01:00 +21°C° 0 mm 2 m/s 752 mmHg 21%
    02:00 +20°C° 0 mm 2 m/s 752 mmHg 21%
    03:00 +20°C° 0 mm 2 m/s 752 mmHg 23%
    04:00 +19°C° 0 mm 2 m/s 752 mmHg 24%
    05:00 +19°C° 0 mm 3 m/s 751 mmHg 26%
    06:00 +20°C° 0 mm 3 m/s 752 mmHg 25%
    07:00 +20°C° 0 mm 3 m/s 753 mmHg 25%
    08:00 +21°C° 0 mm 3 m/s 753 mmHg 24%
    09:00 +25°C° 0 mm 3 m/s 753 mmHg 21%
    10:00 +28°C° 0 mm 3 m/s 753 mmHg 18%
    11:00 +30°C° 0 mm 4 m/s 753 mmHg 15%
    12:00 +31°C° 0 mm 3 m/s 752 mmHg 14%
    13:00 +32°C° 0 mm 2 m/s 751 mmHg 12%
    14:00 +33°C° 0 mm 1 m/s 750 mmHg 11%
    15:00 +34°C° 0 mm 2 m/s 750 mmHg 11%
    16:00 +34°C° 0 mm 2 m/s 750 mmHg 11%
    17:00 +34°C° 0 mm 2 m/s 749 mmHg 11%
    18:00 +31°C° 0 mm 2 m/s 750 mmHg 13%
    19:00 +29°C° 0 mm 2 m/s 750 mmHg 14%
    20:00 +27°C° 0 mm 1 m/s 750 mmHg 15%
    21:00 +26°C° 0 mm 1 m/s 750 mmHg 16%
    22:00 +25°C° 0 mm 1 m/s 750 mmHg 17%
    23:00 +25°C° 0 mm 2 m/s 750 mmHg 18%

    Poimâine, 18 Februarie, Luni

    Timp Temperatura Precipitaţii Vânt Presiune Umiditate
    00:00 +24°C° 0 mm 2 m/s 750 mmHg 19%
    01:00 +23°C° 0 mm 2 m/s 750 mmHg 21%
    02:00 +22°C° 0 mm 1 m/s 749 mmHg 22%
    03:00 +22°C° 0 mm 1 m/s 749 mmHg 22%
    04:00 +22°C° 0 mm 1 m/s 749 mmHg 23%
    05:00 +22°C° 0 mm 1 m/s 749 mmHg 23%
    06:00 +23°C° 0 mm 1 m/s 750 mmHg 22%
    07:00 +24°C° 0 mm 1 m/s 750 mmHg 21%
    08:00 +23°C° 0 mm 0 m/s 751 mmHg 20%
    09:00 +25°C° 0 mm 0 m/s 751 mmHg 18%
    10:00 +27°C° 0 mm 0 m/s 751 mmHg 16%
    11:00 +30°C° 0 mm 0 m/s 751 mmHg 14%
    12:00 +33°C° 0 mm 1 m/s 750 mmHg 15%
    13:00 +35°C° 0 mm 2 m/s 749 mmHg 15%
    14:00 +36°C° 0 mm 3 m/s 748 mmHg 16%
    15:00 +35°C° 0 mm 4 m/s 748 mmHg 17%
    16:00 +35°C° 0 mm 5 m/s 748 mmHg 18%
    17:00 +34°C° 0 mm 5 m/s 748 mmHg 19%
    18:00 +32°C° 0 mm 4 m/s 748 mmHg 22%
    19:00 +29°C° 0 mm 3 m/s 749 mmHg 26%
    20:00 +26°C° 0 mm 1 m/s 749 mmHg 29%
    21:00 +26°C° 0 mm 1 m/s 749 mmHg 31%
    22:00 +25°C° 0 mm 1 m/s 749 mmHg 32%
    23:00 +25°C° 0 mm 1 m/s 749 mmHg 34%

    19 Februarie, Marţi

    Timp Temperatura Precipitaţii Vânt Presiune Umiditate
    00:00 +24°C° 0 mm 1 m/s 749 mmHg 35%
    01:00 +24°C° 0 mm 1 m/s 748 mmHg 36%
    02:00 +23°C° 0 mm 1 m/s 748 mmHg 37%
    03:00 +23°C° 0 mm 1 m/s 748 mmHg 38%
    04:00 +23°C° 0 mm 1 m/s 748 mmHg 39%
    05:00 +22°C° 0 mm 1 m/s 748 mmHg 40%
    06:00 +23°C° 0 mm 1 m/s 749 mmHg 39%
    07:00 +24°C° 0 mm 1 m/s 750 mmHg 37%
    08:00 +25°C° 0 mm 1 m/s 751 mmHg 36%
    09:00 +27°C° 0 mm 1 m/s 751 mmHg 31%
    10:00 +30°C° 0 mm 1 m/s 751 mmHg 26%
    11:00 +32°C° 0 mm 1 m/s 751 mmHg 21%
    12:00 +33°C° 0 mm 1 m/s 751 mmHg 19%
    13:00 +34°C° 0 mm 1 m/s 750 mmHg 17%
    14:00 +36°C° 0 mm 2 m/s 749 mmHg 15%
    15:00 +36°C° 0 mm 2 m/s 749 mmHg 15%
    16:00 +36°C° 0 mm 2 m/s 749 mmHg 15%
    17:00 +36°C° 0 mm 2 m/s 749 mmHg 14%
    18:00 +34°C° 0 mm 2 m/s 749 mmHg 16%
    19:00 +31°C° 0 mm 2 m/s 750 mmHg 18%
    20:00 +29°C° 0 mm 2 m/s 750 mmHg 20%
    21:00 +28°C° 0 mm 2 m/s 751 mmHg 20%
    22:00 +28°C° 0 mm 2 m/s 751 mmHg 21%
    23:00 +27°C° 0 mm 2 m/s 751 mmHg 22%

    20 Februarie, Miercuri

    Timp Temperatura Precipitaţii Vânt Presiune Umiditate
    00:00 +27°C° 0 mm 2 m/s 751 mmHg 23%
    01:00 +26°C° 0 mm 2 m/s 750 mmHg 24%
    02:00 +25°C° 0 mm 1 m/s 750 mmHg 24%
    03:00 +25°C° 0 mm 2 m/s 750 mmHg 25%
    04:00 +25°C° 0 mm 2 m/s 750 mmHg 26%
    05:00 +25°C° 0 mm 2 m/s 750 mmHg 26%
    06:00 +25°C° 0 mm 2 m/s 750 mmHg 26%
    07:00 +26°C° 0 mm 2 m/s 751 mmHg 26%
    08:00 +27°C° 0 mm 2 m/s 752 mmHg 25%
    09:00 +30°C° 0 mm 3 m/s 752 mmHg 22%
    10:00 +34°C° 0 mm 3 m/s 752 mmHg 18%
    11:00 +37°C° 0 mm 3 m/s 752 mmHg 14%
    12:00 +37°C° 0 mm 3 m/s 751 mmHg 13%
    13:00 +38°C° 0 mm 3 m/s 750 mmHg 12%
    14:00 +39°C° 0 mm 2 m/s 749 mmHg 11%
    15:00 +39°C° 0 mm 3 m/s 749 mmHg 11%
    16:00 +39°C° 0 mm 3 m/s 749 mmHg 11%
    17:00 +39°C° 0 mm 3 m/s 749 mmHg 11%
    18:00 +37°C° 0 mm 3 m/s 749 mmHg 13%
    19:00 +34°C° 0 mm 3 m/s 750 mmHg 15%
    20:00 +31°C° 0 mm 3 m/s 751 mmHg 17%
    21:00 +30°C° 0 mm 2 m/s 751 mmHg 18%
    22:00 +29°C° 0 mm 2 m/s 751 mmHg 19%
    23:00 +28°C° 0 mm 2 m/s 751 mmHg 21%

    21 Februarie, Joi

    Timp Temperatura Precipitaţii Vânt Presiune Umiditate
    00:00 +27°C° 0 mm 1 m/s 751 mmHg 22%
    01:00 +27°C° 0 mm 1 m/s 751 mmHg 24%
    02:00 +24°C° 0 mm 0 m/s 750 mmHg 26%
    03:00 +24°C° 0 mm 0 m/s 750 mmHg 27%
    04:00 +25°C° 0 mm 1 m/s 750 mmHg 28%
    05:00 +25°C° 0 mm 1 m/s 750 mmHg 29%
    06:00 +25°C° 0 mm 1 m/s 751 mmHg 29%
    07:00 +26°C° 0 mm 1 m/s 752 mmHg 29%
    08:00 +27°C° 0 mm 1 m/s 753 mmHg 30%
    09:00 +29°C° 0 mm 2 m/s 753 mmHg 27%
    10:00 +31°C° 0 mm 2 m/s 753 mmHg 24%
    11:00 +34°C° 0 mm 2 m/s 753 mmHg 21%
    12:00 +36°C° 0 mm 2 m/s 752 mmHg 20%
    13:00 +37°C° 0 mm 3 m/s 752 mmHg 19%
    14:00 +38°C° 0 mm 3 m/s 751 mmHg 17%
    15:00 +38°C° 0 mm 4 m/s 751 mmHg 18%
    16:00 +37°C° 0 mm 4 m/s 751 mmHg 19%
    17:00 +37°C° 0 mm 5 m/s 750 mmHg 20%
    18:00 +35°C° 0 mm 4 m/s 751 mmHg 23%
    19:00 +33°C° 0 mm 3 m/s 752 mmHg 26%
    20:00 +30°C° 0 mm 2 m/s 752 mmHg 29%
    21:00 +29°C° 0 mm 2 m/s 752 mmHg 32%
    22:00 +28°C° 0 mm 2 m/s 752 mmHg 34%
    23:00 +27°C° 0 mm 2 m/s 752 mmHg 37%
    Arată mai mult